Date,TemperatureHighF,TemperatureAvgF,TemperatureLowF,DewpointHighF,DewpointAvgF,DewpointLowF,HumidityHigh,HumidityAvg,HumidityLow,PressureMaxIn,PressureMinIn,WindSpeedMaxMPH,WindSpeedAvgMPH,GustSpeedMaxMPH,PrecipitationSumIn
2013-1-1,59,28,40,54,-20,-100,100,54,82,30.09,29.88,5,2,16,0.59
2013-1-2,40,9,36,39,-77,-100,98,18,97,30.19,30.06,4,1,8,0.00
2013-1-3,-200,0,200,-100,-100,-100,0,0,100,30.34,30.18,0,0,0,0.00
2013-1-4,-200,0,200,-100,-100,-100,0,0,100,30.41,30.30,0,0,0,0.00
2013-1-5,42,12,42,41,-59,-100,97,28,95,30.33,30.20,0,0,3,0.00
2013-1-6,50,42,30,43,39,29,99,90,69,30.28,30.18,3,1,11,0.00
2013-1-7,58,39,27,40,33,26,97,81,41,30.32,30.14,3,0,10,0.01
2013-1-8,62,49,35,51,43,33,94,80,61,30.18,30.05,6,1,12,0.07
2013-1-9,62,58,53,62,57,51,100,99,94,30.17,30.09,5,3,13,0.23
2013-1-10,67,64,58,67,63,57,100,99,95,30.12,29.82,8,2,24,0.50
2013-1-11,68,64,59,67,63,59,100,97,91,30.01,29.91,2,1,11,0.05
2013-1-12,77,71,68,69,66,63,100,86,64,29.94,29.77,5,2,19,0.02
2013-1-13,73,58,40,66,54,38,95,87,77,30.09,29.70,5,2,19,0.44
2013-1-14,41,36,32,38,34,31,96,92,85,30.18,30.08,5,2,16,1.71
2013-1-15,37,35,34,37,34,33,99,97,95,30.09,29.95,3,1,10,1.75
2013-1-16,35,34,33,35,34,33,100,100,99,30.09,29.99,3,2,13,0.61
2013-1-17,49,37,31,39,34,31,100,90,63,30.38,30.04,6,2,18,0.25
2013-1-18,57,39,26,37,31,25,97,79,33,30.51,30.32,2,0,10,0.01
2013-1-19,60,41,27,44,35,26,97,81,48,30.32,30.16,4,1,13,0.01
2013-1-20,65,44,29,49,38,28,100,82,43,30.20,30.07,2,0,8,0.00
2013-1-21,57,42,31,46,34,28,98,78,44,30.20,30.07,4,1,16,0.01
2013-1-22,50,41,31,35,28,22,90,61,37,30.33,30.20,4,1,12,0.00
2013-1-23,69,50,34,46,41,32,93,76,39,30.30,30.15,5,1,16,0.00
2013-1-24,60,52,42,57,50,40,98,92,85,30.25,30.12,3,0,11,0.01
2013-1-25,72,60,52,58,54,50,95,83,59,30.12,30.00,8,2,21,0.01
2013-1-26,52,49,44,50,45,41,96,86,74,30.21,30.11,3,1,10,0.02
2013-1-27,73,59,46,58,51,42,94,76,55,30.21,30.09,6,1,17,0.00
2013-1-28,71,63,57,62,58,53,93,84,72,30.17,30.02,4,1,17,0.00
2013-1-29,78,71,62,65,63,59,94,78,61,30.02,29.60,9,4,25,0.00
2013-1-30,73,54,39,64,45,29,95,73,54,30.03,29.53,9,5,30,0.66
2013-1-31,59,42,29,35,30,25,94,67,28,30.19,30.04,6,2,18,0.00
2013-2-1,46,46,46,31,31,31,55,55,55,30.18,30.18,2,2,10,0.00
2013-2-2,64,46,31,48,29,-100,93,61,48,30.27,30.08,5,1,16,0.00
2013-2-3,64,44,30,46,31,-100,98,70,27,30.18,30.06,7,2,18,0.00
2013-2-4,59,47,36,42,36,33,90,68,44,30.06,29.88,3,1,10,0.00
2013-2-5,62,52,44,55,49,41,97,90,76,29.99,29.86,2,0,7,0.00
2013-2-6,68,54,38,59,49,38,100,86,58,30.08,29.93,4,1,12,0.09
2013-2-7,69,57,49,60,55,47,100,92,66,29.94,29.81,2,0,7,0.00
2013-2-8,57,52,41,57,49,36,100,90,69,30.16,29.85,4,1,18,0.00
2013-2-9,63,47,30,42,36,28,95,69,39,30.20,30.00,5,1,13,0.01
2013-2-10,61,54,53,60,45,-100,100,85,65,29.99,29.76,6,2,29,2.04
2013-2-11,59,49,49,59,40,-100,100,92,100,30.12,29.92,4,0,8,0.42
2013-2-12,49,47,46,49,41,-100,100,98,100,30.06,29.71,7,2,17,1.65
2013-2-13,50,45,35,48,43,33,100,92,75,30.01,29.73,7,3,19,0.00
2013-2-14,34,32,31,32,31,29,96,95,94,30.01,29.99,0,0,0,0.00
2013-2-15,62,46,31,44,36,30,98,71,37,30.11,30.02,6,2,19,0.01
2013-2-16,47,40,27,31,23,17,86,55,30,30.23,30.11,7,3,21,0.00
2013-2-17,59,43,26,35,27,21,91,59,30,30.26,30.08,6,2,18,0.00
2013-2-18,65,49,42,48,39,34,76,68,54,30.11,29.94,7,2,21,0.00
2013-2-19,56,46,33,54,33,-100,96,69,36,30.21,29.86,6,2,19,0.17
2013-2-20,52,41,31,31,25,18,91,57,27,30.23,30.02,5,2,16,0.00
2013-2-21,56,26,40,47,-23,-100,84,34,47,30.02,29.67,6,2,17,0.04
2013-2-22,66,51,47,58,44,-100,100,87,59,29.97,29.82,3,1,11,0.27
2013-2-23,58,47,36,48,42,34,98,85,60,29.93,29.83,3,1,12,0.00
2013-2-24,67,49,31,43,37,29,96,68,34,29.97,29.75,4,2,16,0.00
2013-2-25,62,56,54,60,48,-100,97,78,55,29.71,29.31,8,4,19,0.45
2013-2-26,54,45,34,53,36,31,97,73,63,29.83,29.38,7,4,22,0.00
2013-2-27,60,44,30,40,36,29,97,75,41,29.96,29.83,6,2,17,0.01
2013-2-28,52,42,32,35,31,28,94,69,43,30.06,29.95,6,2,18,0.00
2013-3-1,44,36,27,33,28,25,95,74,53,30.11,30.02,5,2,19,0.00
2013-3-2,38,33,25,29,25,20,93,74,59,30.19,30.08,5,2,16,0.00
2013-3-3,52,35,20,30,23,18,93,66,29,30.21,30.02,4,1,12,0.00
2013-3-4,70,52,31,52,39,28,89,65,35,30.02,29.76,9,4,28,0.00
2013-3-5,67,55,42,59,46,25,88,73,48,30.13,29.77,9,4,26,0.05
2013-3-6,51,42,32,30,27,25,87,57,41,30.27,30.13,6,2,18,0.00
2013-3-7,60,43,30,37,32,28,93,69,32,30.30,30.17,3,1,11,0.00
2013-3-8,71,51,31,46,36,30,95,63,23,30.26,30.09,2,1,12,0.00
2013-3-9,75,61,49,53,41,32,76,51,22,30.10,29.87,7,2,19,0.00
2013-3-10,74,57,55,60,41,-100,96,71,59,29.90,29.72,7,3,25,0.81
2013-3-11,54,45,38,52,35,-100,97,76,52,29.96,29.78,7,2,22,0.45
2013-3-12,62,45,31,43,34,30,97,70,30,30.15,29.96,5,1,14,0.00
2013-3-13,39,38,36,36,35,34,92,90,87,30.16,30.15,0,0,1,0.00
2013-3-14,67,47,30,41,32,27,94,63,26,30.37,30.17,4,1,11,0.00
2013-3-15,78,58,40,47,42,37,94,61,28,30.16,29.93,7,3,18,0.01
2013-3-16,78,65,53,54,50,45,87,61,34,29.96,29.80,8,4,26,0.02
2013-3-17,78,63,48,59,54,46,96,74,48,29.89,29.68,5,1,14,0.00
2013-3-18,80,67,53,65,59,48,88,77,53,29.90,29.64,7,3,22,0.08
2013-3-19,69,53,41,47,32,-100,93,56,22,30.04,29.92,6,2,16,0.01
2013-3-20,65,54,41,35,29,22,74,42,20,30.13,29.99,6,2,24,0.01
2013-3-21,40,38,37,34,34,33,87,84,79,29.99,29.97,0,0,0,0.00
2013-4-3,54,47,44,45,41,35,94,81,51,30.03,29.93,8,3,18,0.37
2013-4-4,51,48,45,49,47,43,97,95,91,29.97,29.86,3,1,12,0.02
2013-4-5,67,53,44,51,46,42,98,80,45,30.11,29.96,3,1,13,0.01
2013-4-6,75,57,40,52,44,38,97,67,32,30.06,29.91,6,2,17,0.01
2013-4-7,76,63,48,56,52,46,95,71,46,30.02,29.87,7,2,20,0.01
2013-4-8,82,69,54,62,58,52,95,72,46,29.94,29.81,7,2,22,0.00
2013-4-9,87,75,67,68,66,62,90,74,52,29.92,29.82,3,0,16,0.00
2013-4-10,83,75,69,67,66,64,85,73,57,29.88,29.69,0,0,0,0.00
2013-4-11,72,60,47,68,56,43,96,89,78,29.78,29.56,2,0,11,0.80
2013-4-12,71,54,39,49,43,38,97,71,33,29.93,29.79,4,1,14,0.01
2013-4-13,79,61,43,54,48,41,96,69,30,29.97,29.83,2,0,11,0.01
2013-4-14,71,62,54,61,56,50,94,81,66,29.84,29.67,9,1,22,0.58
2013-4-15,84,68,54,69,59,-100,97,81,52,29.87,29.73,4,1,16,0.01
2013-4-16,82,75,72,70,69,68,90,83,65,29.99,29.86,3,0,14,0.00
2013-4-17,86,62,69,76,34,-100,97,68,54,30.01,29.83,0,0,0,0.00
2013-4-18,83,73,56,68,65,54,93,77,59,29.84,29.57,0,0,0,0.79
2013-4-19,57,49,41,51,37,-100,94,71,46,30.11,29.79,5,3,18,0.29
2013-4-20,69,52,36,50,40,34,96,69,33,30.21,30.07,4,1,12,0.00
2013-4-21,72,57,42,51,43,38,95,66,31,30.20,30.06,5,1,13,0.00
2013-4-22,77,61,43,56,50,41,95,71,40,30.09,29.93,3,1,13,0.01
2013-4-23,79,69,59,64,61,55,88,76,58,30.01,29.86,3,1,14,0.00
2013-4-24,69,59,50,63,53,44,94,83,71,30.19,29.87,6,3,21,0.77
2013-4-25,71,55,42,50,42,37,93,66,29,30.29,30.19,5,1,14,0.00
2013-4-26,79,62,44,61,50,42,94,68,39,30.25,30.08,4,1,13,0.00
2013-4-27,80,71,61,67,63,57,93,77,59,30.08,29.89,5,2,17,0.02
2013-4-28,73,67,58,67,63,56,94,88,79,29.91,29.85,5,1,16,0.45
2013-4-29,81,67,56,68,61,55,100,84,44,29.93,29.81,2,0,11,0.01
2013-4-30,59,57,56,57,56,55,96,95,93,29.84,29.82,0,0,0,0.00
2013-5-1,68,64,62,68,64,62,100,98,91,29.90,29.81,7,2,21,5.78
2013-5-2,68,64,61,65,63,61,99,95,87,29.93,29.84,4,2,14,0.53
2013-5-3,64,53,40,64,52,39,100,98,90,29.96,29.81,5,2,19,1.04
2013-5-4,68,52,36,53,44,35,100,78,37,29.95,29.77,4,1,18,0.06
2013-5-5,58,50,45,48,45,42,95,83,64,29.91,29.79,5,2,19,0.00
2013-5-6,66,57,49,58,52,47,93,83,69,29.91,29.84,4,1,14,0.02
2013-5-7,75,62,48,60,55,47,98,80,55,29.96,29.87,2,1,13,0.01
2013-5-8,83,66,50,65,57,49,98,77,44,30.03,29.94,2,0,10,0.00
2013-5-9,82,70,55,67,61,55,99,77,51,30.03,29.91,5,1,14,0.00
2013-5-10,77,69,63,66,64,62,99,86,66,29.96,29.81,5,1,17,1.54
2013-5-11,78,68,58,68,63,55,100,85,59,29.98,29.87,4,1,13,0.01
2013-5-12,72,60,48,55,49,43,97,70,38,30.12,29.98,4,0,12,0.00
2013-5-13,77,61,42,59,47,41,96,67,32,30.22,30.09,2,0,8,0.00
2013-5-14,85,67,50,61,54,49,97,69,32,30.16,30.02,4,1,16,0.00
2013-5-15,59,58,57,56,55,55,93,92,91,30.06,30.05,0,0,0,0.00
2013-5-16,82,70,59,66,62,57,94,76,56,29.95,29.79,4,1,17,0.00
2013-5-17,81,75,70,73,69,66,89,81,69,29.90,29.83,3,0,11,0.00
2013-5-18,86,78,71,73,70,68,92,78,61,29.96,29.86,0,0,0,0.00
2013-5-19,88,78,71,72,70,68,93,78,56,29.93,29.83,0,0,0,0.00
2013-5-20,90,80,74,72,70,69,90,73,53,29.92,29.78,0,0,0,0.00
2013-5-21,89,80,72,72,70,67,91,71,52,29.87,29.69,0,0,0,0.05
2013-5-22,81,70,63,70,66,61,98,86,68,29.88,29.74,0,0,0,0.52
2013-5-23,88,74,63,77,68,62,100,82,48,29.97,29.86,2,0,10,0.01
2013-5-24,83,72,59,66,62,54,96,73,46,30.13,29.97,4,1,12,0.01
2013-5-25,82,67,53,65,56,51,95,71,39,30.19,30.06,3,0,11,0.00
2013-5-26,84,71,57,69,61,55,97,75,39,30.12,30.01,1,0,8,0.02
2013-5-27,86,74,60,70,65,58,99,76,51,30.06,29.91,5,1,19,0.00
2013-5-28,86,76,65,67,63,59,88,67,48,29.97,29.90,3,1,17,0.00
2013-5-29,87,76,64,72,68,59,94,77,57,29.97,29.85,4,1,17,0.00
2013-5-30,85,77,71,72,70,68,93,81,59,29.94,29.84,3,1,17,0.00
2013-5-31,89,80,72,75,72,68,90,77,61,29.94,29.82,3,1,17,0.00
2013-6-1,90,78,72,76,71,68,94,80,58,29.90,29.80,4,0,14,0.02
2013-6-2,82,73,66,71,68,65,100,86,65,29.91,29.80,6,1,20,1.23
2013-6-3,84,76,67,70,68,65,95,78,56,29.89,29.79,3,1,13,0.00
2013-6-4,89,77,64,76,70,63,98,80,57,29.88,29.78,2,0,10,0.00
2013-6-5,90,76,69,79,72,67,100,89,57,29.86,29.71,6,1,26,1.56
2013-6-6,87,73,68,83,71,67,100,95,66,29.78,29.68,4,1,21,0.24
2013-6-7,82,73,66,76,69,63,100,89,63,29.82,29.69,4,0,12,0.05
2013-6-8,84,74,61,73,66,60,100,79,56,29.91,29.82,2,0,10,0.03
2013-6-9,86,76,68,74,71,66,100,83,66,29.90,29.78,4,1,14,0.01
2013-6-10,90,79,68,73,70,67,95,76,50,29.91,29.85,3,1,12,0.00
2013-6-11,92,80,70,78,73,69,100,80,56,30.00,29.90,3,1,12,0.00
2013-6-12,74,73,72,71,71,70,95,94,92,29.96,29.93,0,0,0,0.00
2013-6-13,92,65,69,78,34,-100,100,66,57,29.95,29.78,5,2,13,0.00
2013-6-14,86,47,70,76,-6,-100,94,61,47,29.91,29.80,4,1,11,0.10
2013-6-15,90,28,61,70,-41,-100,97,52,49,29.97,29.88,2,0,12,0.00
2013-6-16,91,12,75,73,-86,-100,95,24,55,29.99,29.89,3,0,7,0.00
2013-6-17,88,32,70,85,-30,-100,100,65,58,29.92,29.80,3,1,10,0.08
2013-6-18,84,22,74,76,-57,-100,95,35,68,29.90,29.80,4,1,12,0.03
2013-6-19,88,28,75,76,-43,-100,75,29,55,29.96,29.85,2,0,10,0.00
2013-6-20,90,31,67,72,-36,-100,100,43,49,30.05,29.94,2,0,8,0.00
2013-6-21,-200,0,200,-100,-100,-100,98,8,98,30.03,30.00,0,0,0,0.00
2013-7-11,88,75,67,73,68,65,97,81,56,29.97,29.85,5,0,18,0.00
2013-7-12,90,79,70,73,71,69,97,78,57,30.06,29.98,2,0,11,0.00
2013-7-13,88,78,70,73,70,69,97,78,55,30.13,30.05,6,1,16,0.00
2013-7-14,93,80,71,74,71,69,96,75,48,30.12,30.02,2,0,12,0.00
2013-7-15,90,75,69,75,71,68,100,88,55,30.00,29.93,3,0,12,0.45
2013-7-16,92,80,70,75,72,69,97,79,49,29.93,29.86,1,0,8,0.00
2013-7-17,92,80,71,75,71,69,94,77,48,29.89,29.79,3,0,17,0.02
2013-7-18,90,80,75,77,72,70,85,76,54,29.90,29.84,5,2,17,0.04
2013-7-19,92,83,76,75,73,72,92,75,56,29.89,29.83,5,2,17,0.00
2013-7-20,90,81,75,76,73,71,91,77,59,29.86,29.77,4,0,13,0.00
2013-7-21,85,74,69,76,71,69,100,92,64,29.86,29.79,1,0,10,0.49
2013-7-22,90,76,64,69,66,62,95,75,48,29.96,29.92,2,0,13,0.00
2013-7-23,87,78,71,73,70,66,95,79,49,29.94,29.83,2,0,13,0.44
2013-7-24,80,74,68,75,70,67,98,88,71,29.85,29.79,2,0,10,0.02
2013-7-25,90,80,69,76,71,68,96,78,55,29.96,29.87,1,0,8,0.00
2013-7-26,93,81,71,76,72,69,96,77,48,30.02,29.97,1,0,10,0.00
2013-7-27,95,83,75,76,74,70,96,77,45,30.00,29.94,1,0,10,0.00
2013-7-28,91,82,74,73,71,67,93,73,50,29.94,29.84,2,0,10,0.00
2013-7-29,95,82,70,77,72,69,96,76,50,29.89,29.82,3,1,13,0.00
2013-7-30,95,82,74,77,74,72,97,77,47,29.90,29.85,2,0,13,0.00
2013-7-31,93,80,73,80,75,73,98,85,57,29.95,29.91,2,0,11,0.14
2013-8-1,95,82,72,76,72,71,96,75,50,29.95,29.89,3,1,13,0.00
2013-8-2,95,83,74,77,74,72,98,78,47,29.89,29.82,4,1,12,0.03
2013-8-3,95,83,73,78,73,71,94,74,51,29.85,29.80,6,1,16,0.00
2013-8-4,98,85,76,78,74,72,92,74,45,29.84,29.76,2,0,11,0.00
2013-8-5,98,87,78,77,74,71,90,69,42,29.87,29.77,2,0,11,0.00
2013-8-6,96,78,73,78,74,72,100,90,50,29.95,29.84,2,0,16,1.06
2013-8-7,91,82,74,75,74,72,95,79,57,29.99,29.92,2,0,12,0.00
2013-8-21,90,77,71,75,72,70,98,85,59,30.06,29.95,2,0,17,0.00
2013-8-22,87,77,69,73,71,68,96,82,60,30.12,30.05,4,1,13,0.00
2013-8-23,88,73,61,68,64,60,95,77,49,30.10,30.02,2,0,12,0.01
2013-8-24,88,73,60,69,64,59,95,77,46,30.01,29.95,1,0,8,0.00
2013-8-25,88,75,65,72,66,64,96,77,45,29.98,29.93,1,0,10,0.00
2013-8-26,92,78,68,76,69,66,95,77,44,29.94,29.89,1,0,7,0.00
2013-8-27,94,80,69,76,71,68,95,77,44,29.89,29.81,1,0,7,0.00
2013-8-28,95,80,70,77,72,69,95,78,46,29.81,29.76,2,0,8,0.00
2013-8-29,96,81,70,75,70,68,95,75,41,29.80,29.74,2,0,11,0.00
2013-8-30,92,79,71,74,71,70,95,78,50,29.83,29.76,2,0,14,0.00
2013-8-31,94,80,69,75,72,68,95,80,50,29.89,29.79,3,0,14,0.02
2013-9-1,96,80,70,72,68,65,95,71,37,29.97,29.88,1,0,11,0.00
2013-9-2,97,82,70,74,70,64,94,70,35,30.00,29.92,1,0,7,0.00
2013-9-3,95,79,68,74,68,66,94,74,40,29.96,29.89,1,0,8,0.00
2013-9-4,94,78,66,69,66,61,95,72,34,29.92,29.86,2,0,12,0.00
2013-9-5,96,79,67,72,68,64,94,72,35,29.90,29.83,2,0,8,0.00
2013-9-6,96,81,70,74,69,65,93,70,37,29.98,29.87,2,0,10,0.00
2013-9-7,96,79,69,74,71,68,96,80,41,30.02,29.93,3,0,13,0.62
2013-9-8,93,79,68,72,68,64,93,72,39,30.00,29.94,1,0,10,0.00
2013-9-21,77,71,62,73,67,58,100,87,72,29.76,29.69,2,1,11,0.00
2013-9-22,80,65,54,60,56,53,96,75,42,29.81,29.72,5,1,12,0.01
2013-9-23,87,69,52,71,62,51,97,80,48,29.81,29.74,2,0,11,0.01
2013-9-24,77,73,68,75,72,68,100,97,92,29.78,29.68,5,0,14,1.13
2013-9-25,86,74,64,81,68,62,100,86,49,29.75,29.69,3,0,14,0.01
2013-9-26,87,71,58,72,64,58,100,80,44,29.88,29.74,1,0,11,0.00
2013-9-27,85,72,64,78,67,63,100,85,53,29.97,29.87,3,0,11,0.01
2013-9-28,84,70,60,67,62,59,100,79,48,30.02,29.93,1,0,11,0.01
2013-9-29,72,68,61,68,64,60,98,89,78,29.98,29.87,0,0,6,0.03
2013-9-30,81,72,66,73,69,66,100,89,72,29.89,29.81,3,0,12,0.00
2013-10-1,85,74,65,74,69,65,100,87,59,29.98,29.88,2,0,10,0.00
2013-10-2,84,74,69,76,70,68,100,89,61,30.00,29.89,2,0,11,0.12
2013-10-3,87,74,67,77,71,66,100,91,58,29.96,29.86,2,0,8,0.00
2013-10-4,88,76,69,77,73,69,100,91,56,29.96,29.88,2,0,11,0.01
2013-10-5,88,77,69,78,72,68,100,84,56,29.94,29.81,2,0,12,0.00
2013-10-6,74,67,54,72,63,52,100,87,61,29.90,29.79,3,1,16,0.29
2013-10-7,73,60,48,55,52,47,98,77,49,29.99,29.89,3,1,12,0.01
2013-10-8,76,60,46,58,52,45,97,78,45,30.00,29.92,2,0,11,0.01
2013-10-9,77,62,50,71,59,49,100,90,67,30.04,29.95,2,0,10,0.00
2013-10-10,60,59,58,59,58,57,98,97,96,30.00,30.00,0,0,0,0.00
2013-10-11,84,68,58,80,64,57,100,90,54,29.98,29.88,2,0,11,0.01
2013-10-12,86,70,60,80,67,60,100,93,63,30.00,29.90,3,0,18,0.00
2013-10-13,84,72,64,78,68,64,100,88,61,30.11,29.99,2,0,11,0.01
2013-10-14,84,70,61,67,63,61,100,81,48,30.07,29.95,3,0,12,0.00
2013-10-15,81,70,61,69,65,60,99,84,57,29.98,29.85,3,0,16,0.01
2013-10-16,75,69,62,71,67,62,100,94,84,29.89,29.82,4,0,14,0.13
2013-10-17,62,62,62,62,62,62,100,100,100,29.87,29.85,0,0,5,0.04
2013-10-26,71,51,35,52,41,33,97,73,35,30.25,30.08,2,0,8,0.00
2013-10-27,68,55,43,59,52,42,99,90,66,30.08,29.96,1,0,7,0.62
2013-10-28,75,64,58,70,62,58,100,95,76,30.10,30.00,1,0,7,0.03
2013-10-29,78,66,57,75,63,57,100,91,59,30.16,30.06,2,0,11,0.00
2013-10-30,78,68,59,71,64,59,100,88,68,30.12,29.93,3,0,13,0.01
2013-10-31,72,69,64,72,68,64,100,96,88,29.91,29.65,3,1,17,1.71
2013-11-1,73,62,49,64,55,47,100,82,42,29.84,29.75,3,0,12,0.01
2013-11-2,67,46,47,54,22,-100,100,65,43,30.12,29.84,5,1,18,0.00
2013-11-3,64,39,35,47,8,-100,98,60,45,30.21,30.06,5,1,17,0.00
2013-11-4,68,53,39,55,47,38,98,82,54,30.22,30.11,3,1,12,0.00
2013-11-5,76,62,52,59,54,49,94,75,54,30.18,30.04,5,1,19,0.00
2013-11-6,74,64,54,66,58,49,95,81,69,30.07,29.96,4,1,18,0.00
2013-11-7,61,50,38,54,42,35,95,76,47,30.29,30.08,5,2,19,0.00
2013-11-8,62,47,32,47,38,30,97,75,41,30.30,30.16,5,1,14,0.00
2013-11-9,58,51,43,51,46,42,95,86,65,30.21,30.11,1,0,5,0.00
2013-11-10,70,56,46,54,50,44,99,82,49,30.25,30.15,2,0,11,0.00
2013-11-11,75,55,40,56,47,39,99,79,40,30.20,30.07,1,0,6,0.00
2013-11-12,52,44,32,50,38,25,98,81,61,30.51,30.13,6,2,18,0.00
2013-11-13,54,37,27,32,24,17,90,63,24,30.56,30.38,5,1,14,0.00
2013-11-14,27,26,25,24,23,23,92,91,91,30.36,30.34,0,0,0,0.00
2013-11-24,47,37,29,30,23,20,77,58,34,30.46,30.30,6,2,19,0.00
2013-11-25,42,37,35,40,27,-100,95,74,55,30.29,29.95,3,1,11,2.15
2013-11-26,44,35,36,43,22,-100,100,88,95,30.00,29.74,5,3,17,0.53
2013-11-27,39,33,24,34,22,-100,94,70,49,30.35,30.01,6,3,20,0.01
2013-11-28,50,32,19,30,23,17,93,74,32,30.43,30.34,2,0,8,0.00
2013-11-29,59,36,21,35,26,19,95,72,27,30.49,30.36,2,0,7,0.00
2013-11-30,64,40,24,39,29,22,96,71,23,30.40,30.19,3,0,11,0.01
2013-12-1,62,49,33,50,41,31,94,77,49,30.19,29.89,0,0,6,0.00
2013-12-2,70,58,51,60,53,49,96,83,68,29.89,29.63,3,0,12,0.00
2013-12-3,76,64,53,68,60,52,100,88,58,29.67,29.57,6,1,19,0.00
2013-12-4,79,70,64,68,64,61,96,84,61,29.81,29.67,8,2,19,0.00
2013-12-5,80,65,46,71,62,44,99,88,64,29.93,29.77,6,2,18,0.00
2013-12-6,45,40,33,44,39,31,98,96,94,30.25,29.90,4,2,18,0.28
2013-12-7,34,32,31,31,30,29,96,91,87,30.37,30.21,5,2,16,0.00
2013-12-8,41,33,34,41,22,-100,100,87,92,30.21,30.01,1,0,5,0.30
2013-12-9,-200,0,200,-100,-100,-100,0,0,100,30.13,30.03,0,0,0,0.00
2013-12-10,-200,0,200,-100,-100,-100,0,0,100,30.35,30.10,2,0,8,0.00
2013-12-11,55,26,23,35,-18,-100,96,43,38,30.42,30.29,2,0,11,0.24
2013-12-12,33,22,32,29,-14,-100,86,57,85,30.45,30.42,0,0,5,0.00
2013-12-13,53,21,24,35,-22,-100,92,46,42,30.33,29.83,3,0,12,0.05
2013-12-14,-200,0,200,-100,-100,-100,0,0,100,29.83,29.73,0,0,0,0.00